User: anonymous
Location: Dover
(39.1580°N, 75.5250°W)
Time: 00:33:44
(UTC-04:00)
Language:

Cosmos 1437 Rocket - Orbit

View from above orbital plane
View from above orbital plane
View from above satellite
View from above satellite

Ground track
Ground track

The orbit data is extracted from the following two-line orbital elements,

1 13771U 83003B   14110.47480989  .00007545  00000-0  51146-3 0    92
2 13771 081.1578 250.4392 0031021 218.9846 140.9142 15.05938895699863
Epoch (UTC): 20 April 2014 11:23:43
Eccentricity: 0.0031021
inclination: 81.1578°
perigee height: 527 km
apogee height: 570 km
right ascension of ascending node: 250.4392°
argument of perigee: 218.9846°
revolutions per day: 15.05938895
mean anomaly at epoch: 140.9142°
orbit number at epoch: 69986

The dashed part of the orbit path shows where the satellite is in the earth's shadow,  

DLR